Location: Camps Bay
(33.9517°S, 18.3844°E)
Time: 11:26:02
(UTC+00:00)

NOSS 3-4 (A) - Pass Details

Date: 18 January 2020
Orbit: 901 x 1312 km, 63.4° (Epoch: 06 February)

Event Time Altitude Azimuth Distance (km) Brightness Sun altitude
Rises 03:21:17 0° 221° (SW) 3,901 6.5 -6.7°
Reaches altitude 10° 03:24:18 10° 229° (SW) 2,873 5.8 -6.2°
Maximum altitude 03:30:10 33° 290° (WNW) 1,593 4.2 -5.1°
Drops below altitude 10° 03:35:35 10° 352° (N) 2,640 5.4 -4.1°
Sets 03:38:15 0° 2° (N) 3,543 6.2 -3.6°
